Location: ??????????
(54.4061°N, 22.6114°E)
Time: 14:37:20
(UTC+00:00)

Cosmos 1939 Rocket - Pass Details

Date: 23 October 2019
Orbit: 533 x 584 km, 97.4° (Epoch: 21 November)

Event Time Altitude Azimuth Distance (km) Brightness Sun altitude
Rises 16:10:50 0° 134° (SE) 2,753 6.0 -8.9°
Reaches altitude 10° 16:13:09 10° 123° (ESE) 1,870 5.1 -9.2°
Maximum altitude 16:16:39 29° 63° (ENE) 1,073 3.8 -9.7°
Drops below altitude 10° 16:20:14 10° 4° (N) 1,905 5.5 -10.2°
Sets 16:22:36 0° 353° (N) 2,816 6.5 -10.6°
